Hourly Data Report for March 21, 2012

All times are specified in Local Standard Time (LST). Add 1 hour to adjust for Daylight Saving Time where and when it is observed.

SAINT JOHN A
NEW BRUNSWICK

45°19'05.000" N
65°53'08.050" W
108.80 m
8104900
71609
YSJ

Download Data

Hourly Data (March 2012)
Hourly Data Report for March 21, 2012
Temp Definition
°C
Dew Point Temp Definition
°C
Rel Hum Definition
%
Wind Dir Definition
10's deg

Wind Spd Definition
km/h
Visibility Definition
km
Stn Press Definition
kPa
Hmdx Definition


Wind Chill Definition


Weather Definition


TIME
00:00 0.7 -0.9 89   0 19.3 100.85     Clear
01:00 0.2 -1.5 88 35 4 19.3 100.85     Clear
02:00 0.2 -1.4 89   0 19.3 100.85     Clear
03:00 -0.2 -1.9 88   0 19.3 100.82     Clear
04:00 0.4 -1.3 88 35 6 19.3 100.81     Clear
05:00 0.9 -0.8 88   0 19.3 100.82     Clear
06:00 0.6 -1.1 88 1 7 24.1 100.83     Mainly Clear
07:00 1.4 -0.4 88 1 6 24.1 100.90     Mainly Clear
08:00 5.8 3.6 86 35 4 24.1 100.90     Mainly Clear
09:00 12.6 9.2 80   0 24.1 100.93     Mainly Clear
10:00 17.7 10.9 64 28 7 24.1 100.95     Mainly Clear
11:00 20.9 11.6 55 32 13 24.1 100.93     Mainly Clear
12:00 23.3 10.6 45 31 13 24.1 100.89 25   Mainly Clear
13:00 24.6 11.9 45 31 20 24.1 100.81 27   Mainly Clear
14:00 24.9 11.3 43 27 13 24.1 100.74 27   Mainly Clear
15:00 23.9 11.0 44 21 17 24.1 100.69 26   Mainly Clear
16:00 23.0 10.8 46 19 15 24.1 100.63 25   Mainly Clear
17:00 22.2 10.4 47 22 13 24.1 100.63     Mainly Clear
18:00 18.8 9.9 56 20 13 24.1 100.65     Clear
19:00 15.5 9.9 69 19 11 24.1 100.64     Clear
20:00 11.4 7.2 75 21 13 24.1 100.67     Clear
21:00 9.6 6.3 80 21 6 24.1 100.68     Clear
22:00 6.1 3.5 83   0 24.1 100.66     Clear
23:00 5.1 2.6 84   0 24.1 100.61     Clear

Notes on Data Quality.

Legend

  • E = Estimated
  • M = Missing
  • NA = Not Available
Date modified: